Time,TemperatureF,DewpointF,PressureIn,WindDirection,WindDirectionDegrees,WindSpeedMPH,WindSpeedGustMPH,Humidity,HourlyPrecipIn,Conditions,Clouds,dailyrainin,SoftwareType,DateUTC
2013-03-03 00:06:00,50.2,40.0,30.03,SW,226,0.0,3.0,67,0.00,,,0.00,weatherlink.com 1.10,2013-03-03 05:06:00,
2013-03-03 00:21:00,49.7,39.0,30.02,SW,231,0.0,1.0,68,0.00,,,0.00,weatherlink.com 1.10,2013-03-03 05:21:00,
2013-03-03 00:36:00,49.0,39.0,30.02,WSW,246,0.0,1.0,69,0.00,,,0.00,weatherlink.com 1.10,2013-03-03 05:36:00,
2013-03-03 00:51:00,48.5,39.0,30.01,West,271,0.0,1.0,70,0.00,,,0.00,weatherlink.com 1.10,2013-03-03 05:51:00,
2013-03-03 01:06:00,48.1,39.0,30.01,West,278,0.0,2.0,71,0.00,,,0.00,weatherlink.com 1.10,2013-03-03 06:06:00,
2013-03-03 01:21:00,47.8,39.0,30.02,West,269,0.0,1.0,72,0.00,,,0.00,weatherlink.com 1.10,2013-03-03 06:21:00,
2013-03-03 01:36:00,47.3,39.0,30.02,West,262,0.0,0.0,74,0.00,,,0.00,weatherlink.com 1.10,2013-03-03 06:36:00,
2013-03-03 01:51:00,46.8,39.0,30.01,SW,219,0.0,0.0,74,0.00,,,0.00,weatherlink.com 1.10,2013-03-03 06:51:00,
2013-03-03 02:06:00,46.2,39.0,30.01,SW,220,0.0,0.0,76,0.00,,,0.00,weatherlink.com 1.10,2013-03-03 07:06:00,
2013-03-03 02:21:00,46.0,40.0,30.00,SW,219,0.0,0.0,78,0.00,,,0.00,weatherlink.com 1.10,2013-03-03 07:21:00,
2013-03-03 02:36:00,46.0,40.0,30.00,SW,219,0.0,0.0,78,0.00,,,0.00,weatherlink.com 1.10,2013-03-03 07:36:00,
2013-03-03 02:51:00,45.9,40.0,29.99,SW,219,0.0,1.0,79,0.00,,,0.00,weatherlink.com 1.10,2013-03-03 07:51:00,
2013-03-03 03:06:00,46.0,40.0,29.99,SW,219,0.0,0.0,80,0.00,,,0.00,weatherlink.com 1.10,2013-03-03 08:06:00,
2013-03-03 03:21:00,45.8,40.0,29.99,SW,219,0.0,0.0,80,0.00,,,0.00,weatherlink.com 1.10,2013-03-03 08:21:00,
2013-03-03 03:36:00,46.2,40.0,29.99,WSW,248,0.0,1.0,79,0.00,,,0.00,weatherlink.com 1.10,2013-03-03 08:36:00,
2013-03-03 03:51:00,46.6,40.0,29.98,West,270,0.0,1.0,78,0.00,,,0.00,weatherlink.com 1.10,2013-03-03 08:51:00,
2013-03-03 04:06:00,46.5,40.0,29.98,WSW,243,0.0,1.0,78,0.00,,,0.00,weatherlink.com 1.10,2013-03-03 09:06:00,
2013-03-03 04:21:00,46.6,40.0,29.98,SW,232,0.0,1.0,78,0.00,,,0.00,weatherlink.com 1.10,2013-03-03 09:21:00,
2013-03-03 04:36:00,46.3,40.0,29.98,SW,232,0.0,0.0,79,0.00,,,0.00,weatherlink.com 1.10,2013-03-03 09:36:00,
2013-03-03 04:51:00,45.9,40.0,29.98,SW,233,0.0,0.0,80,0.00,,,0.00,weatherlink.com 1.10,2013-03-03 09:51:00,
2013-03-03 05:06:00,45.7,41.0,29.98,SW,233,0.0,0.0,82,0.00,,,0.00,weatherlink.com 1.10,2013-03-03 10:06:00,
2013-03-03 05:21:00,46.2,41.0,29.99,SW,222,0.0,2.0,81,0.00,,,0.00,weatherlink.com 1.10,2013-03-03 10:21:00,
2013-03-03 05:36:00,46.7,40.0,29.99,WSW,243,0.0,1.0,77,0.00,,,0.00,weatherlink.com 1.10,2013-03-03 10:36:00,
2013-03-03 05:51:00,46.8,40.0,30.00,SSW,207,0.0,1.0,76,0.00,,,0.00,weatherlink.com 1.10,2013-03-03 10:51:00,
2013-03-03 06:06:00,46.9,40.0,30.00,SSW,210,0.0,1.0,77,0.00,,,0.00,weatherlink.com 1.10,2013-03-03 11:06:00,
2013-03-03 06:21:00,47.3,40.0,30.00,WSW,255,0.0,2.0,77,0.00,,,0.00,weatherlink.com 1.10,2013-03-03 11:21:00,
2013-03-03 06:36:00,47.6,40.0,30.00,WSW,248,0.0,1.0,76,0.00,,,0.00,weatherlink.com 1.10,2013-03-03 11:36:00,
2013-03-03 06:51:00,47.4,40.0,30.01,WNW,290,0.0,3.0,76,0.00,,,0.00,weatherlink.com 1.10,2013-03-03 11:51:00,
2013-03-03 07:06:00,46.6,39.0,30.02,West,271,0.0,2.0,76,0.00,,,0.00,weatherlink.com 1.10,2013-03-03 12:06:00,
2013-03-03 07:21:00,45.6,37.0,30.02,WSW,255,3.0,8.0,71,0.00,,,0.00,weatherlink.com 1.10,2013-03-03 12:21:00,
2013-03-03 07:36:00,46.4,37.0,30.03,WSW,248,0.0,5.0,70,0.00,,,0.00,weatherlink.com 1.10,2013-03-03 12:36:00,
2013-03-03 07:51:00,47.3,36.0,30.03,SW,224,2.0,6.0,64,0.00,,,0.00,weatherlink.com 1.10,2013-03-03 12:51:00,
2013-03-03 08:06:00,48.4,36.0,30.04,West,263,1.0,6.0,62,0.00,,,0.00,weatherlink.com 1.10,2013-03-03 13:06:00,
2013-03-03 08:22:00,48.9,35.0,30.04,West,264,2.0,5.0,60,0.00,,,0.00,weatherlink.com 1.10,2013-03-03 13:22:00,
2013-03-03 08:37:00,48.3,35.0,30.04,West,263,0.0,6.0,60,0.00,,,0.00,weatherlink.com 1.10,2013-03-03 13:37:00,
2013-03-03 08:52:00,48.8,36.0,30.05,West,259,1.0,5.0,61,0.00,,,0.00,weatherlink.com 1.10,2013-03-03 13:52:00,
2013-03-03 09:07:00,50.1,36.0,30.05,South,185,1.0,5.0,58,0.00,,,0.00,weatherlink.com 1.10,2013-03-03 14:07:00,
2013-03-03 09:22:00,52.6,37.0,30.06,WSW,246,3.0,4.0,56,0.00,,,0.00,weatherlink.com 1.10,2013-03-03 14:22:00,
2013-03-03 09:37:00,54.4,38.0,30.06,SW,222,0.0,3.0,54,0.00,,,0.00,weatherlink.com 1.10,2013-03-03 14:37:00,
2013-03-03 09:52:00,55.0,37.0,30.06,SW,214,1.0,6.0,51,0.00,,,0.00,weatherlink.com 1.10,2013-03-03 14:52:00,
2013-03-03 10:07:00,56.5,38.0,30.05,SW,214,0.0,4.0,50,0.00,,,0.00,weatherlink.com 1.10,2013-03-03 15:07:00,
2013-03-03 10:22:00,57.4,38.0,30.05,West,264,0.0,8.0,48,0.00,,,0.00,weatherlink.com 1.10,2013-03-03 15:22:00,
2013-03-03 10:37:00,58.0,37.0,30.05,West,273,2.0,7.0,45,0.00,,,0.00,weatherlink.com 1.10,2013-03-03 15:37:00,
2013-03-03 10:52:00,58.4,38.0,30.05,South,190,2.0,5.0,47,0.00,,,0.00,weatherlink.com 1.10,2013-03-03 15:52:00,
2013-03-03 11:07:00,59.4,38.0,30.04,SSE,165,0.0,5.0,46,0.00,,,0.00,weatherlink.com 1.10,2013-03-03 16:07:00,
2013-03-03 11:22:00,59.7,38.0,30.05,West,261,2.0,6.0,45,0.00,,,0.00,weatherlink.com 1.10,2013-03-03 16:22:00,
2013-03-03 11:37:00,61.0,39.0,30.04,SW,226,0.0,5.0,45,0.00,,,0.00,weatherlink.com 1.10,2013-03-03 16:37:00,
2013-03-03 11:52:00,61.4,38.0,30.03,SW,214,2.0,4.0,42,0.00,,,0.00,weatherlink.com 1.10,2013-03-03 16:52:00,
2013-03-03 12:07:00,61.4,39.0,30.03,NW,304,2.0,7.0,43,0.00,,,0.00,weatherlink.com 1.10,2013-03-03 17:07:00,
2013-03-03 12:22:00,62.5,39.0,30.02,WSW,245,1.0,7.0,42,0.00,,,0.00,weatherlink.com 1.10,2013-03-03 17:22:00,
2013-03-03 12:37:00,61.9,38.0,30.02,WSW,252,1.0,8.0,42,0.00,,,0.00,weatherlink.com 1.10,2013-03-03 17:37:00,
2013-03-03 12:52:00,62.4,39.0,30.01,West,260,0.0,7.0,42,0.00,,,0.00,weatherlink.com 1.10,2013-03-03 17:52:00,
2013-03-03 13:07:00,63.0,40.0,30.00,West,260,1.0,4.0,43,0.00,,,0.00,weatherlink.com 1.10,2013-03-03 18:07:00,
2013-03-03 13:22:00,63.0,39.0,30.00,SW,235,4.0,6.0,42,0.00,,,0.00,weatherlink.com 1.10,2013-03-03 18:22:00,
2013-03-03 13:37:00,62.6,40.0,30.00,WNW,285,3.0,6.0,43,0.00,,,0.00,weatherlink.com 1.10,2013-03-03 18:37:00,
2013-03-03 13:52:00,61.7,39.0,29.99,WSW,256,2.0,11.0,43,0.00,,,0.00,weatherlink.com 1.10,2013-03-03 18:52:00,
2013-03-03 14:07:00,61.5,39.0,30.00,WNW,283,2.0,7.0,44,0.00,,,0.00,weatherlink.com 1.10,2013-03-03 19:07:00,
2013-03-03 14:22:00,61.5,39.0,29.99,WSW,246,5.0,9.0,43,0.00,,,0.00,weatherlink.com 1.10,2013-03-03 19:22:00,
2013-03-03 14:37:00,61.9,39.0,30.00,NNW,344,2.0,8.0,43,0.00,,,0.00,weatherlink.com 1.10,2013-03-03 19:37:00,
2013-03-03 14:52:00,61.3,38.0,30.00,SSE,158,3.0,8.0,43,0.00,,,0.00,weatherlink.com 1.10,2013-03-03 19:52:00,
2013-03-03 15:07:00,61.0,39.0,29.99,SW,229,2.0,9.0,44,0.00,,,0.00,weatherlink.com 1.10,2013-03-03 20:07:00,
2013-03-03 15:23:00,60.5,38.0,29.99,WSW,248,2.0,7.0,44,0.00,,,0.00,weatherlink.com 1.10,2013-03-03 20:23:00,
2013-03-03 15:37:00,60.8,39.0,29.99,SW,215,1.0,6.0,45,0.00,,,0.00,weatherlink.com 1.10,2013-03-03 20:37:00,
2013-03-03 15:52:00,59.9,39.0,30.00,SSW,193,0.0,7.0,47,0.00,,,0.00,weatherlink.com 1.10,2013-03-03 20:52:00,
2013-03-03 16:07:00,60.1,40.0,29.99,NNE,23,4.0,7.0,47,0.00,,,0.00,weatherlink.com 1.10,2013-03-03 21:07:00,
2013-03-03 16:22:00,59.8,40.0,29.99,NNE,26,1.0,5.0,48,0.00,,,0.00,weatherlink.com 1.10,2013-03-03 21:22:00,
2013-03-03 16:37:00,58.9,40.0,30.00,SW,225,1.0,8.0,49,0.00,,,0.00,weatherlink.com 1.10,2013-03-03 21:37:00,
2013-03-03 16:52:00,59.1,40.0,30.01,WSW,238,3.0,9.0,50,0.00,,,0.00,weatherlink.com 1.10,2013-03-03 21:52:00,
2013-03-03 17:07:00,59.0,41.0,30.02,SSW,212,2.0,7.0,51,0.00,,,0.00,weatherlink.com 1.10,2013-03-03 22:07:00,
2013-03-03 17:22:00,57.9,40.0,30.02,WSW,255,5.0,8.0,51,0.00,,,0.00,weatherlink.com 1.10,2013-03-03 22:22:00,
2013-03-03 17:37:00,57.1,39.0,30.02,NW,319,1.0,11.0,52,0.00,,,0.00,weatherlink.com 1.10,2013-03-03 22:37:00,
2013-03-03 17:52:00,56.9,39.0,30.03,SW,232,3.0,7.0,52,0.00,,,0.00,weatherlink.com 1.10,2013-03-03 22:52:00,
2013-03-03 18:07:00,56.3,38.0,30.04,NNE,29,1.0,8.0,51,0.00,,,0.00,weatherlink.com 1.10,2013-03-03 23:07:00,
2013-03-03 18:22:00,55.5,38.0,30.04,SW,235,2.0,8.0,53,0.00,,,0.00,weatherlink.com 1.10,2013-03-03 23:22:00,
2013-03-03 18:37:00,54.9,38.0,30.05,SSE,155,2.0,7.0,53,0.00,,,0.00,weatherlink.com 1.10,2013-03-03 23:37:00,
2013-03-03 18:52:00,54.3,38.0,30.06,North,356,3.0,5.0,55,0.00,,,0.00,weatherlink.com 1.10,2013-03-03 23:52:00,
2013-03-03 19:07:00,53.7,39.0,30.06,WSW,248,0.0,4.0,57,0.00,,,0.00,weatherlink.com 1.10,2013-03-04 00:07:00,
2013-03-03 19:23:00,53.2,39.0,30.07,WSW,248,1.0,5.0,58,0.00,,,0.00,weatherlink.com 1.10,2013-03-04 00:23:00,
2013-03-03 19:38:00,52.8,39.0,30.07,West,262,0.0,2.0,60,0.00,,,0.00,weatherlink.com 1.10,2013-03-04 00:38:00,
2013-03-03 19:53:00,52.4,39.0,30.08,WNW,288,1.0,3.0,61,0.00,,,0.00,weatherlink.com 1.10,2013-03-04 00:53:00,
2013-03-03 20:08:00,52.0,40.0,30.08,SW,215,0.0,1.0,63,0.00,,,0.00,weatherlink.com 1.10,2013-03-04 01:08:00,
2013-03-03 20:23:00,51.3,40.0,30.09,WSW,251,0.0,2.0,65,0.00,,,0.00,weatherlink.com 1.10,2013-03-04 01:23:00,
2013-03-03 20:38:00,50.9,41.0,30.10,SW,228,0.0,1.0,68,0.00,,,0.00,weatherlink.com 1.10,2013-03-04 01:38:00,
2013-03-03 20:53:00,50.5,41.0,30.11,West,271,0.0,1.0,69,0.00,,,0.00,weatherlink.com 1.10,2013-03-04 01:53:00,
2013-03-03 21:08:00,50.1,41.0,30.12,SW,233,1.0,3.0,71,0.00,,,0.00,weatherlink.com 1.10,2013-03-04 02:08:00,
2013-03-03 21:23:00,49.9,40.0,30.12,WSW,242,0.0,6.0,69,0.00,,,0.00,weatherlink.com 1.10,2013-03-04 02:23:00,
2013-03-03 21:38:00,49.5,39.0,30.13,WSW,238,0.0,2.0,68,0.00,,,0.00,weatherlink.com 1.10,2013-03-04 02:38:00,
2013-03-03 21:53:00,49.0,39.0,30.13,SW,226,0.0,3.0,68,0.00,,,0.00,weatherlink.com 1.10,2013-03-04 02:53:00,
2013-03-03 22:08:00,48.7,38.0,30.14,SW,233,0.0,4.0,67,0.00,,,0.00,weatherlink.com 1.10,2013-03-04 03:08:00,
2013-03-03 22:23:00,48.4,38.0,30.14,WSW,238,0.0,2.0,67,0.00,,,0.00,weatherlink.com 1.10,2013-03-04 03:23:00,
2013-03-03 22:38:00,48.0,37.0,30.14,West,274,1.0,3.0,66,0.00,,,0.00,weatherlink.com 1.10,2013-03-04 03:38:00,
2013-03-03 22:53:00,47.7,37.0,30.15,SW,214,1.0,3.0,66,0.00,,,0.00,weatherlink.com 1.10,2013-03-04 03:53:00,
2013-03-03 23:08:00,47.6,37.0,30.16,WNW,287,0.0,4.0,66,0.00,,,0.00,weatherlink.com 1.10,2013-03-04 04:08:00,
2013-03-03 23:23:00,47.5,37.0,30.16,WSW,243,1.0,5.0,67,0.00,,,0.00,weatherlink.com 1.10,2013-03-04 04:23:00,
2013-03-03 23:38:00,47.5,37.0,30.16,SSW,204,2.0,5.0,67,0.00,,,0.00,weatherlink.com 1.10,2013-03-04 04:38:00,
2013-03-03 23:53:00,47.2,37.0,30.16,WNW,285,1.0,5.0,67,0.00,,,0.00,weatherlink.com 1.10,2013-03-04 04:53:00,